Regional Weather Roundup
Issued by NWS

Home | Current Version | Previous Version | Text Only | Print | Product List | Glossary Off
Versions: 1 2 3 4 5 6 7 8 9 10 11 12 13 14 15 16 17 18 19 20 21 22 23 24 25 26 27 28 29 30 31 32 33 34 35 36 37 38 39 40 41 42 43 44 45 46 47 48 49 50

000
ASUS45 KSLC 290610
RWRUT

UTAH REGIONAL WEATHER ROUNDUP
NATIONAL WEATHER SERVICE SALT LAKE CITY UT
1200 AM MDT FRI MAY 29 2015

UTZ001>011-023>025-290700-

NORTHERN UTAH

CITY           SKY/WX    TMP DP  RH WIND       PRES   REMARKS
BRIGHAM CITY   PTCLDY    54  47  78 CALM      30.16F
HILL AFB       CLEAR     55  42  61 E12       30.17S
LOGAN          CLEAR     51  45  79 S6        30.18F
OGDEN          CLEAR     56  45  66 S7        30.15S
PROVO AIRPORT  CLEAR     55  39  54 E5        30.17R
SALT LAKE CITY PTCLDY    58  46  64 SW3       30.15R
VERNAL         PTCLDY    47  41  80 NW3       30.20R
WENDOVER       CLOUDY    63  48  59 NE10      30.16S
HEBER CITY     CLEAR     43  37  81 CALM      30.22R
WEST JORDAN    CLEAR     55  43  62 CALM      30.17R

$$

UTZ012>022-026-027-290700-

SOUTHERN/CENTRAL UTAH

CITY           SKY/WX    TMP DP  RH WIND       PRES   REMARKS
BLANDING       PTCLDY    56  40  55 N8        30.23S
BRYCE CANYON   MOCLDY    48  40  73 N3        30.29F
CEDAR CITY     MOCLDY    52  45  77 N5        30.17R
DELTA          PTCLDY    57  45  64 NE3       30.17S
HANKSVILLE     CLEAR     59  36  41 CALM      30.14R
MILFORD        MOCLDY    57  49  74 CALM      30.15S
MOAB/CYNLANDS  PTCLDY    61  41  47 VRB5      30.11S
PRICE          CLEAR     50  39  66 N12       30.19S
ST GEORGE      CLEAR     79  41  25 NE18G28   30.00R
KANAB          MOCLDY    63  39  42 NW6       30.15F

$$

REGIONAL REPORTS     COLORADO/ARIZONA

CITY           SKY/WX    TMP DP  RH WIND       PRES   REMARKS
CRAIG, CO      PTCLDY    42  40  92 SE5       30.25R
GRAND JUNCTION PTCLDY    51  47  86 NE3       30.16F
RIFLE          CLEAR     50  42  74 CALM      30.22R
MONTROSE       PTCLDY    51  40  65 S5        30.22S
CORTEZ         CLEAR     50  42  74 W3        30.17S
PAGE, AZ       PTCLDY    70  40  33 W3        30.07F
GRAND CANYON   PTCLDY    46  36  68 CALM      30.20S
KINGMAN        MOCLDY    74  21  13 S10       30.01R
FLAGSTAFF      PTCLDY    45  25  45 CALM      30.25S

$$

REGIONAL REPORTS    NEVADA/IDAHO/WYOMING

CITY           SKY/WX    TMP DP  RH WIND       PRES   REMARKS
LAS VEGAS, NV  CLOUDY    87  28  12 S9        29.84R
ELY            PTCLDY    50  42  74 SE12      30.21R
ELKO           CLEAR     59  40  49 NE12      30.16R
POCATELLO, ID  CLEAR     51  49  92 NE5       30.20R
BURLEY         PTCLDY    55  44  66 NE7       30.16R
EVANSTON, WY   CLEAR     45  36  70 SE3       30.28R
ROCK SPRINGS   PTCLDY    43  38  82 E6        30.24S
KEMMERER       PTCLDY    41  36  81 NW8       30.28S

$$



USA.gov is the U.S. government's official web portal to all federal, state and local government web resources and services.